Location: Fond Mahaut
(18.0707°N, 63.0465°W)
Time: 13:30:08
(UTC+00:00)

Fermi - Pass Details

Date: 08 December 2019
Orbit: 523 x 541 km, 25.6° (Epoch: 16 January)

Event Time Altitude Azimuth Distance (km) Brightness Sun altitude
Rises 23:11:53 0° 247° (WSW) 2,642 8.8 -22.0°
Reaches altitude 10° 23:14:08 10° 246° (WSW) 1,758 7.5 -22.5°
Enters shadow 23:17:57 74° 204° (SSW) 549 3.8 -23.4°
